CZ-6A DEB, 61079

Orbit data source: Space-Track

CZ-6A DEB, 61079 is space debris in LEO originally from a launch on Tue, 06 Aug 2024 UTC launched from the Taiyaun Space Center, China (TSC). Debris objects in space refer to the collection of defunct objects orbiting the Earth. Examples of debris include non-operational satellites, rocket bodies, and fragments generated from explosions, collisions, or faulty payload assembly.

Loading next visibility...
Identifier
61079, 2024-140MV
Orbit
LEO
Country
Flag of CNCN / PRC
Related business
Manufacturer
SAST
Mission
Spacecraft
Bus & Motor
Unknown
Mass
Unknown
Launch date (UTC)
2024-08-06 (2 years ago)
Launch vehicle
Unknown
Launch site
Taiyaun Space Center, China (TSC)
Object type
Payload
Rocket body
Debris
Shape & HBR
Unknown shape, 0.1 m
Radar Cross Section
Small (<0.1 m²)

Expand to show TLE details & history
Last TLE update: 15 hours ago

TLE from 15 hours ago
0 CZ-6A DEB
1 61079U 24140MV  26171.23155456  .00000330  00000-0  11791-3 0  9990
2 61079  88.8508 260.7079 0058153  45.9855 314.6112 14.30771421 94765
Epoch: 2026-06-20T05:33Z
TLE epoch observation values (Epoch: 2026-06-20T05:33:26.313Z)
Latitude
-0.00002°
Longitude
-91.10088°
Altitude
763.067 km
Speed
7.488 km/s
True Right ascension
17h 22m 49s
True Declination
0° 00' 00"
Sunlit
Object was in full shadow at epoch
Visualization orbit readout
Latitude
Unknown
Longitude
Unknown
Altitude
Unknown
Speed
Unknown
Apparent Right ascension
Unknown
Apparent Declination
Unknown
Sunlit
N/A
Visualization observer readout
Local Sidereal Time
07:23:41
Azimuth
Unknown
Elevation
Unknown
Doppler factor
Unknown
Orbital elements
Apogee altitude
827.752 km
Perigee altitude
744.428 km
Semi-major axis
7,164.227 km
Eccentricity
0.00582
Inclination
88.8508°
RAAN
260.7079°
Arg. of periapsis
45.9855°
True anomaly
314.13438°
Mean anomaly
314.6112°
Eccentric anomaly
314.37303°
Mean motion
3.57923 °/min
Orbital period
100.58 mins
BSTAR
0.00011791
Loading maneuver chart data...
Computing Atmospheric mass density...
Loading historical data...
Loading historical data...
Loading historical data...
Loading historical data...
Loading historical data...
Loading historical data...
Loading historical data...

Documentation

Showing up to 5 results
|